Flag for Nicaragua Weather past 2 weeks in Masaya, Nicaragua

Now
79 °F

Passing clouds.


Feels Like: 82 °F
Forecast: 73 / 88 °F
Wind: 5 mph from South

Location: Managua A. C. Sandino

Current Time: Sep 1, 2014 at 7:22:27 AM

Latest Report: Sep 1, 2014 at 7:00 AM


Visibility: N/A

Pressure: 29.86 "Hg

Humidity: 84%

Dew point: 73 °F

Location of MasayaLocation

Historic Weather in Masaya — Graph

°F

Masaya temperature yesterday

Maximum temperature yesterday: 91 °F (at 2:00 PM)
Minimum temperature yesterday: 75 °F (at 4:00 AM)
Average temperature yesterday: 84 °F

Past Weeks' High & Low Weather Summary

 TemperatureHumidityPressure
High95 °F (Aug 25, 3:00 PM)100% (Aug 28, 2:00 AM)29.95 "Hg (Aug 28, 2:00 AM)
Low72 °F (Aug 20, 7:00 PM)47% (Aug 25, 3:00 PM)29.68 "Hg (Aug 24, 5:00 PM)
Average82 °F77%29.83 "Hg
* Reported Aug 17 6:00 AM — Sep 1 6:00 AM, Masaya, Weather by CustomWeather, © 2014

Note: Actual official high and low records may vary slightly from our data, if they occured in-between our weather recording intervals... More about our weather records

Advertising

Masaya weather history for previous 24 hours

 ConditionsComfort  
Time TempWeatherWind HumidityBarometerVisibility
6:00 AM
Sep 1
75 °FPassing clouds.No wind89%29.86 "HgN/A
5:00 AM75 °FPassing clouds.No wind89%29.83 "HgN/A
4:00 AM75 °FPassing clouds.No wind89%29.83 "HgN/A
1:00 AM79 °FPassing clouds.No wind84%29.86 "HgN/A
12:00 AM79 °FPassing clouds.No wind84%29.86 "HgN/A
11:00 PM
Aug 31
81 °FPassing clouds.5 mph84%29.89 "HgN/A
10:45 PM81 °FWarm.No wind84%29.89 "HgN/A
9:00 PM82 °FPassing clouds.5 mph84%29.86 "HgN/A
8:00 PM84 °FPassing clouds.5 mph79%29.83 "HgN/A
7:00 PM86 °FWarm.5 mph75%29.80 "HgN/A
6:00 PM88 °FPassing clouds.5 mph66%29.77 "HgN/A
5:00 PM90 °FScattered clouds.9 mph63%29.77 "HgN/A
4:00 PM90 °FScattered clouds.7 mph63%29.74 "HgN/A
3:00 PM90 °FScattered clouds.9 mph63%29.77 "HgN/A
2:00 PM91 °FScattered clouds.9 mph59%29.80 "HgN/A
1:00 PM90 °FScattered clouds.9 mph63%29.83 "HgN/A
12:00 PM90 °FScattered clouds.7 mph59%29.83 "HgN/A
11:00 AM88 °FPassing clouds.7 mph62%29.86 "HgN/A
10:00 AM86 °FPassing clouds.9 mph66%29.89 "HgN/A
9:00 AM84 °FPassing clouds.5 mph66%29.89 "HgN/A
8:00 AM81 °FPassing clouds.5 mph79%29.89 "HgN/A
7:00 AM79 °FPassing clouds.No wind84%29.86 "HgN/A
Weather by CustomWeather, © 2014

See weather overviewHow to use our weather pages